Tracking 17884 objects as of 4-December-2016
HD Live streaming from Space Station
objects crossing your sky now

CZ-2D DEB

Track CZ-2D DEB now!
10-day predictions


NORAD ID: 28742
Int'l Code: 2005-024F
Perigee: 520.2 km
Apogee: 686.9 km
Inclination: 97.7 °
Period: 96.6 minutes
Semi major axis: 6974 km
RCS: 0.0146 m2 (small)
Launch date: July 5, 2005
Source: People's Republic of China (PRC)
Launch site: Jiuquan Satellite Launch Center, China (JSC)

Note: This is SATELLITE DEBRIS
Your satellite tracking list
Your tracking list is empty





NASA's NSSDC Master Catalog

Two Line Element Set (TLE):
1 28742U 05024F   16337.89173183 +.00003058 +00000-0 +27895-3 0  9994
2 28742 097.6606 136.5036 0119486 150.5066 210.2964 14.90494119607431
Source of the keplerian elements: AFSPC